[Show "Revision History"] [Show "General Page Infos"] [Show "Page hits and edits"]

Revision History

Showing page edit history entries from 1 to 57 out of 57 entries total. (5 | 10 | 25 | 50 | 100 | 200 items per page)

# Date Size Editor Comment Action
57 2012-01-12 13:53:45 24171 to previous JimJagielski   view
56 2012-01-12 13:08:31 24188 to previous AlexeiFedotov   view
55 2012-01-12 12:57:32 24183 to previous AlexeiFedotov   view
54 2012-01-12 12:55:09 24203 to previous AlexeiFedotov   view
53 2012-01-12 05:50:36 23481 to previous NoelBergman Close Report view
52 2012-01-12 02:00:46 23450 to previous GianugoRabellino   view
51 2012-01-12 01:48:33 23441 to previous JukkaZitting Sign off Cordova report, remove extra placeholder from Callback view
50 2012-01-11 23:13:13 23640 to previous AlessandroNovarini Added Kitty report view
49 2012-01-11 22:27:08 22080 to previous brianleroux   view
48 2012-01-11 20:48:11 21170 to previous MarcelOffermans Added the Celix report, a bit late because of holidays. view
47 2012-01-11 18:18:32 20004 to previous JimJagielski   view
46 2012-01-11 16:27:06 19978 to previous MohammadNour - Reviewed and signed Deft scheduled report view
45 2012-01-11 16:16:29 19972 to previous KevanMiller   view
44 2012-01-11 11:44:09 19774 to previous monteith Add Kato report. view
43 2012-01-11 10:57:32 18731 to previous JukkaZitting Note about delayed Callback/Cordova report view
42 2012-01-11 05:54:04 18613 to previous ChrisDouglas   view
41 2012-01-11 05:35:35 18603 to previous TomWhite2   view
40 2012-01-11 04:12:19 18629 to previous WRowe   view
39 2012-01-10 20:58:16 18623 to previous EricYang   view
38 2012-01-10 16:50:09 17980 to previous MateiZaharia   view
37 2012-01-10 16:48:46 17979 to previous MateiZaharia   view
36 2012-01-09 18:06:14 16839 to previous TimWilliams sign DM report view
35 2012-01-09 16:46:02 16825 to previous GregReddin Signed Flex report. view
34 2012-01-06 21:47:21 16816 to previous ChrisDouglas   view
33 2012-01-06 21:04:41 16806 to previous MarvinHumphrey Change "committers" to "Committers/PPMC-members". view
32 2012-01-06 02:46:01 16793 to previous Mohammad K Islam   view
31 2012-01-05 05:42:12 15643 to previous MichaelStroucken add tashi view
30 2012-01-05 03:55:04 13039 to previous NickBurch sign off ODF report view
29 2012-01-05 02:45:53 13034 to previous robweir   view
28 2012-01-04 19:37:25 13076 to previous OwenOmalley   view
27 2012-01-04 16:13:15 13067 to previous TillWestmann   view
26 2012-01-04 14:10:20 12779 to previous ChrisMattmann - add stub Giraph report view
25 2012-01-04 14:02:42 12352 to previous ChrisMattmann - stub Any23 report. view
24 2012-01-04 12:12:02 10907 to previous MartijnDashorst   view
23 2012-01-04 10:43:32 10898 to previous BertrandDelacretaz   view
22 2012-01-04 09:53:52 10708 to previous DevinHan   view
21 2012-01-04 09:21:16 9767 to previous francisdb   view
20 2012-01-04 06:04:53 9214 to previous ChrisMattmann - sign off on Lucy report view
19 2012-01-04 05:31:12 9205 to previous StefanBodewig sign off Easyant report view
18 2012-01-04 02:29:18 9197 to previous MarvinHumphrey   view
17 2012-01-03 20:49:56 8363 to previous JimJagielski   view
16 2012-01-03 20:39:19 8358 to previous OlivierLamy   view
15 2012-01-03 19:29:48 8345 to previous RogerSchildmeijer   view
14 2012-01-03 19:29:15 8355 to previous RogerSchildmeijer   view
13 2012-01-03 17:10:48 7676 to previous ChrisDouglas   view
12 2012-01-03 16:30:28 7667 to previous RaffaeleGuidi   view
11 2012-01-03 16:29:43 7690 to previous RaffaeleGuidi   view
10 2012-01-03 15:57:01 6598 to previous AlanCabrera   view
9 2012-01-03 15:41:02 6571 to previous NicolasLalevée   view
8 2012-01-02 21:57:52 6287 to previous NehaNarkhede   view
7 2012-01-02 09:47:57 4571 to previous BrettPorter   view
6 2012-01-02 00:11:13 4652 to previous DavidCrossley Get this month's list of projects for reporting view
5 2012-01-01 19:26:41 2979 to previous struberg   view
4 2012-01-01 15:50:02 2919 to previous GerhardPetracek   view
3 2011-12-10 00:05:02 1183 to previous DavidCrossley fix text for due date view
2 2011-11-29 05:31:10 1141 to previous DavidCrossley save the template view
1 2011-06-01 04:11:04 1060 DavidCrossley restore the template text view